Orbital Elements
Epoch 2007 Mar. 1.0 TT = JDT 2454160.5
T 2007 Mar. 5.24854 TT MPC
q 2.0506456 (2000.0) P Q
n 0.15115764 Peri. 95.60720 -0.88063957 -0.45906449
a 3.4901920 Node 57.11781 +0.36035271 -0.80957408
e 0.4124548 Incl. 8.02171 +0.30760343 -0.36585463
P 6.52
From 133 observations 2007 Feb. 9-2014 Mar. 23, mean residual 0".5.
|